Location: Unspecified
(0.0000°N, 0.0000°E)
Time: 21:17:05
(UTC+00:00)

Envisat - Pass Details

Date: 29 May 2023
Orbit: 763 x 765 km, 98.2° (Epoch: 05 June)

Event Time Altitude Azimuth Distance (km) Brightness Sun altitude
Rises 04:07:03 0° 352° (N) 3,210 6.4 -25.5°
Reaches altitude 10° 04:09:37 10° 341° (NNW) 2,288 5.5 -24.9°
Enters shadow 04:11:35 20° 323° (NW) 1,701 4.6 -24.5°
